FW2665 Weather Reports


time (UTC)temp
F
wind
direction
speed
knots
gust
knots
rain 1hr
in
rain 24hr
in
rain mn
in
humidity
%
barometer
mb
20260906193004 80 115 4.3 8.7 0.00 0.00 0.00 68 1013.5
20260906192004 80 143 2.6 5.2 0.00 0.00 0.00 70 1013.4
20260906191505 80 250 0.9 6.1 0.00 0.00 0.00 71 1013.5
20260906191004 79 250 0.9 6.1 0.00 0.00 0.00 71 1013.6
20260906190504 79 226 4.3 7.0 0.00 0.00 0.00 72 1013.5
20260906185503 79 256 4.3 7.8 0.00 0.00 0.00 73 1013.2
20260906185004 78 248 4.3 7.8 0.00 0.00 0.00 75 1013.3
20260906184504 78 262 5.2 7.8 0.00 0.00 0.00 76 1013.3
20260906183504 78 269 6.1 10.4 0.00 0.00 0.00 76 1013.4
20260906183004 78 263 6.1 10.4 0.00 0.00 0.00 77 1013.4
20260906182504 78 257 6.1 8.7 0.00 0.00 0.00 79 1013.3
20260906182005 78 242 5.2 7.8 0.00 0.00 0.00 81 1013.2
20260906181503 78 250 5.2 8.7 0.00 0.00 0.00 84 1013.3
20260906181004 78 245 5.2 8.7 0.00 0.00 0.00 84 1013.4
20260906180504 78 251 5.2 10.4 0.00 0.00 0.00 85 1013.4
20260906175504 78 262 5.2 10.4 0.00 0.00 0.00 87 1013.5
20260906175004 78 262 5.2 13.0 0.00 0.00 0.00 87 1013.6
20260906174503 78 238 8.7 15.6 0.00 0.00 0.00 86 1013.9
20260906174005 78 241 9.6 15.6 0.00 0.00 0.00 86 1014.1
20260906173504 78 244 8.7 12.2 0.00 0.00 0.00 86 1014.3
20260906173004 79 249 8.7 12.2 0.00 0.00 0.00 87 1014.4
20260906172504 79 241 7.0 10.4 0.00 0.00 0.00 86 1014.5
20260906172005 79 228 6.1 8.7 0.00 0.00 0.00 86 1014.3
20260906171004 79 193 3.5 5.2 0.00 0.00 0.00 85 1013.9
20260906170005 79 190 4.3 6.1 0.00 0.00 0.00 84 1013.8
20260906165503 79 176 2.6 7.0 0.00 0.00 0.00 84 1013.7
20260906164504 79 233 6.1 7.0 0.00 0.00 0.00 83 1013.8
20260906164005 79 230 5.2 7.0 0.00 0.00 0.00 84 1013.8
20260906163503 79 216 5.2 8.7 0.00 0.00 0.00 86 1013.6
20260906163003 79 195 6.1 8.7 0.00 0.00 0.00 86 1013.6
20260906162504 79 220 6.1 7.8 0.00 0.00 0.00 86 1013.5
20260906161505 78 239 4.3 7.8 0.00 0.00 0.00 85 1013.2
20260906161004 78 262 5.2 7.8 0.00 0.00 0.00 85 1013.1
20260906160504 78 255 4.3 6.1 0.00 0.00 0.00 86 1013.2
20260906160004 78 264 4.3 6.1 0.00 0.00 0.00 88 1013.3
20260906155503 78 278 2.6 6.1 0.00 0.00 0.00 89 1013.3
20260906155005 78 208 4.3 6.1 0.00 0.00 0.00 91 1013.4
20260906154504 78 107 2.6 2.6 0.00 0.00 0.00 91 1013.4
20260906154003 78 107 0.9 1.7 0.00 0.00 0.00 91 1013.1
20260906153504 78 107 0.9 1.7 0.00 0.00 0.00 91 1013.1
20260906153004 78 107 0.9 1.7 0.00 0.00 0.00 91 1013.1
20260906152505 78 107 0.9 2.6 0.00 0.00 0.00 91 1013.0
20260906150507 77 107 0.0 6.1 0.00 0.00 0.00 91 1012.9
20260906150004 77 107 1.7 6.1 0.00 0.00 0.00 91 1012.7
20260906145503 77 121 3.5 6.1 0.00 0.00 0.00 91 1012.5
20260906144504 77 132 4.3 7.8 0.00 0.00 0.00 91 1012.7
20260906144003 77 128 5.2 8.7 0.00 0.00 0.00 91 1012.6
20260906143503 77 137 6.1 8.7 0.00 0.00 0.00 92 1012.6
20260906143006 77 130 4.3 8.7 0.00 0.00 0.00 92 1012.6
20260906142504 77 137 5.2 8.7 0.00 0.00 0.00 92 1012.7
20260906142003 77 132 4.3 7.8 0.00 0.00 0.00 92 1012.7
20260906141503 77 141 4.3 11.3 0.00 0.00 0.00 92 1012.7
20260906141005 77 131 7.0 11.3 0.00 0.00 0.00 92 1012.6
20260906140504 77 138 7.8 11.3 0.00 0.00 0.00 92 1012.4
20260906134004 77 138 7.8 13.0 0.00 0.00 0.00 93 1011.9
20260906133506 77 132 8.7 13.9 0.00 0.00 0.00 93 1012.0
20260906132504 77 135 9.6 13.0 0.00 0.00 0.00 93 1012.1
20260906132004 77 128 7.8 10.4 0.00 0.00 0.00 93 1012.0
20260906131505 76 133 7.8 10.4 0.00 0.00 0.00 93 1012.0
20260906131004 76 127 6.1 11.3 0.00 0.00 0.00 93 1011.8
20260906130503 76 135 7.8 11.3 0.00 0.00 0.00 93 1011.8
20260906130004 76 120 7.8 10.4 0.00 0.00 0.00 94 1011.5
20260906125505 76 116 7.8 11.3 0.00 0.00 0.00 94 1011.5
20260906125004 76 118 7.8 11.3 0.00 0.00 0.00 93 1011.4
20260906124504 76 116 7.0 11.3 0.00 0.00 0.00 93 1011.4
20260906124004 76 113 8.7 11.3 0.00 0.00 0.00 93 1011.3
20260906123505 76 111 6.1 10.4 0.00 0.00 0.00 93 1011.3
20260906123004 76 100 7.8 10.4 0.00 0.00 0.00 93 1011.1
20260906122504 76 108 7.0 10.4 0.00 0.00 0.00 93 1011.1
20260906122003 76 112 8.7 10.4 0.00 0.00 0.00 93 1011.0
20260906121506 76 112 7.8 10.4 0.00 0.00 0.00 93 1011.1
20260906120504 76 113 7.8 10.4 0.00 0.00 0.00 93 1011.2
20260906120004 76 114 7.0 10.4 0.00 0.00 0.00 93 1011.1
20260906115505 76 113 7.0 10.4 0.00 0.00 0.00 93 1010.9
20260906114004 76 120 6.1 10.4 0.00 0.02 0.00 93 1010.8
20260906113003 76 116 6.1 10.4 0.00 0.03 0.00 93 1010.7
20260906112506 76 122 6.1 10.4 0.00 0.04 0.00 93 1010.7
20260906112004 76 119 7.0 10.4 0.00 0.04 0.00 93 1010.6
20260906111503 76 122 6.1 10.4 0.00 0.05 0.00 93 1010.6
20260906110505 76 117 6.1 10.4 0.00 0.05 0.00 93 1010.6
20260906105504 77 125 6.1 10.4 0.00 0.05 0.00 92 1010.6
20260906105004 77 125 6.1 10.4 0.00 0.06 0.00 92 1010.6
20260906104504 77 124 6.1 10.4 0.00 0.07 0.00 92 1010.7
20260906104006 77 130 6.1 10.4 0.00 0.07 0.00 92 1010.8
20260906103504 77 123 6.1 10.4 0.00 0.08 0.00 92 1010.7
20260906103004 77 127 7.8 10.4 0.00 0.08 0.00 92 1010.7
20260906102005 77 136 7.8 11.3 0.00 0.09 0.00 92 1010.6
20260906101504 77 135 7.8 11.3 0.00 0.09 0.00 92 1010.6
20260906101004 77 139 7.8 13.9 0.00 0.09 0.00 92 1010.5
20260906100504 77 135 8.7 13.9 0.00 0.09 0.00 92 1010.4
20260906100005 77 136 8.7 13.0 0.00 0.09 0.00 92 1010.4
20260906095504 77 136 8.7 12.2 0.00 0.09 0.00 92 1010.4
20260906095004 77 133 7.8 12.2 0.00 0.09 0.00 92 1010.4
20260906094504 77 129 7.8 11.3 0.00 0.09 0.00 92 1010.4
20260906094006 77 128 7.8 11.3 0.00 0.09 0.00 92 1010.4
20260906093004 77 137 7.8 12.2 0.00 0.10 0.00 92 1010.5
20260906092503 77 136 7.8 12.2 0.00 0.10 0.00 92 1010.6
20260906092005 77 133 7.8 13.0 0.00 0.10 0.00 92 1010.7
20260906091503 77 136 8.7 13.0 0.00 0.10 0.00 92 1010.8
20260906091003 77 142 8.7 13.0 0.00 0.10 0.00 92 1010.8
20260906090503 77 141 7.8 13.0 0.00 0.10 0.00 92 1010.9
20260906090005 77 143 7.0 13.0 0.00 0.10 0.00 92 1010.9
20260906085504 77 143 8.7 13.0 0.00 0.11 0.00 92 1010.9
20260906085004 77 145 7.8 12.2 0.00 0.11 0.00 92 1011.0
20260906084503 77 147 7.8 12.2 0.00 0.11 0.00 92 1011.1
20260906084006 77 147 7.8 12.2 0.00 0.11 0.00 92 1011.0
20260906083504 77 155 7.8 12.2 0.00 0.11 0.00 92 1011.1
20260906083003 77 149 7.8 12.2 0.00 0.11 0.00 92 1011.1
20260906081503 77 150 7.0 11.3 0.00 0.13 0.00 92 1011.0
20260906081005 77 147 7.8 11.3 0.00 0.13 0.00 92 1010.9
20260906080504 77 139 7.8 13.0 0.00 0.14 0.00 92 1010.8
20260906080005 77 136 7.8 13.0 0.00 0.14 0.00 91 1010.7
20260906075004 77 134 8.7 13.9 0.00 0.14 0.00 91 1010.6
20260906074004 77 133 8.7 14.8 0.00 0.14 0.00 91 1010.7
20260906073504 77 140 10.4 14.8 0.00 0.14 0.00 91 1010.7
20260906073003 77 141 10.4 13.9 0.00 0.14 0.00 91 1010.8
20260906072504 77 142 10.4 13.9 0.00 0.14 0.00 91 1010.8
20260906072004 77 141 8.7 13.9 0.00 0.14 0.00 90 1010.8
20260906071504 77 140 10.4 13.9 0.00 0.14 0.00 90 1010.8
20260906070503 77 141 8.7 14.8 0.00 0.14 0.00 90 1011.1
20260906065003 77 136 8.7 13.9 0.00 0.14 0.00 89 1011.1
20260906064505 77 136 8.7 13.0 0.00 0.14 0.00 89 1011.2
20260906064004 77 132 8.7 13.0 0.00 0.14 0.00 89 1011.1
20260906063504 77 126 8.7 13.0 0.00 0.14 0.00 89 1011.0
20260906063006 76 130 7.0 10.4 0.00 0.14 0.00 89 1011.0
20260906062503 76 129 7.8 12.2 0.00 0.14 0.00 89 1011.1
20260906062004 76 126 7.0 12.2 0.00 0.14 0.00 89 1011.1
20260906061505 76 129 7.8 11.3 0.00 0.14 0.00 89 1011.0
20260906061003 76 129 7.8 10.4 0.00 0.14 0.00 88 1011.0
20260906060504 76 125 6.1 10.4 0.00 0.14 0.00 88 1011.2
20260906060005 76 117 6.1 10.4 0.00 0.14 0.00 88 1011.2
20260906055503 76 117 7.0 10.4 0.00 0.14 0.00 88 1011.1
20260906055004 76 114 7.0 10.4 0.00 0.14 0.00 88 1011.1
20260906054504 76 118 7.8 10.4 0.00 0.14 0.00 87 1011.1
20260906054004 76 121 7.8 10.4 0.00 0.14 0.00 87 1011.1
20260906053504 76 117 7.0 10.4 0.00 0.14 0.00 87 1011.2
20260906053004 76 118 7.8 10.4 0.00 0.14 0.00 87 1011.3
20260906052504 76 114 7.0 10.4 0.00 0.14 0.00 86 1011.3
20260906052004 76 114 7.8 10.4 0.00 0.14 0.00 86 1011.2
20260906051004 76 106 7.8 10.4 0.00 0.14 0.00 86 1011.3
20260906050504 76 108 7.8 10.4 0.00 0.14 0.00 85 1011.4
20260906050004 76 108 6.1 10.4 0.00 0.14 0.00 85 1011.6
20260906045004 76 114 7.8 10.4 0.00 0.14 0.14 84 1011.3
20260906044503 76 116 7.8 10.4 0.00 0.14 0.14 84 1011.3
20260906044004 76 118 7.0 10.4 0.00 0.14 0.14 84 1011.3
20260906043003 77 123 6.1 12.2 0.00 0.14 0.14 83 1011.3
20260906042504 77 125 6.1 13.0 0.00 0.14 0.14 82 1011.3
20260906042005 77 123 8.7 13.0 0.00 0.14 0.14 82 1011.3
20260906041504 77 130 7.8 13.0 0.00 0.14 0.14 82 1011.4
20260906041005 77 126 7.8 12.2 0.00 0.14 0.14 82 1011.4
20260906040504 77 125 7.8 12.2 0.00 0.14 0.14 81 1011.4
20260906040005 77 134 7.8 12.2 0.00 0.14 0.14 81 1011.4
20260906035504 77 132 8.7 12.2 0.00 0.14 0.14 81 1011.3
20260906035005 77 131 8.7 13.0 0.00 0.14 0.14 81 1011.4
20260906034503 77 131 9.6 13.0 0.00 0.14 0.14 81 1011.4
20260906034004 77 138 10.4 13.0 0.00 0.14 0.14 81 1011.4
20260906033503 77 137 8.7 13.0 0.00 0.14 0.14 81 1011.4
20260906033004 77 132 8.7 12.2 0.00 0.14 0.14 80 1011.4
20260906032004 77 127 8.7 11.3 0.00 0.14 0.14 79 1011.4
20260906031504 77 134 7.8 12.2 0.00 0.14 0.14 79 1011.4
20260906031003 78 128 7.8 12.2 0.00 0.14 0.14 78 1011.3
20260906025503 78 121 7.0 11.3 0.00 0.14 0.14 76 1011.2
20260906024004 79 123 7.8 10.4 0.00 0.14 0.14 75 1011.2
20260906023504 79 115 7.8 10.4 0.00 0.14 0.14 75 1011.0
20260906023004 79 118 7.8 11.3 0.00 0.14 0.14 74 1011.0
20260906022503 79 118 7.8 11.3 0.00 0.14 0.14 74 1011.0
20260906022004 79 126 7.8 11.3 0.00 0.14 0.14 74 1011.0
20260906021004 79 123 7.0 10.4 0.00 0.14 0.14 73 1010.9
20260906020504 79 127 6.1 10.4 0.00 0.14 0.14 72 1010.8
20260906020004 80 125 6.1 10.4 0.00 0.14 0.14 72 1010.9
20260906015505 80 125 6.1 12.2 0.00 0.14 0.14 71 1010.9
20260906015004 80 124 7.8 12.2 0.00 0.14 0.14 71 1010.8
20260906014504 80 120 7.8 11.3 0.00 0.14 0.14 70 1010.7
20260906014004 80 129 7.8 12.2 0.00 0.14 0.14 69 1010.6
20260906013503 81 126 8.7 12.2 0.00 0.14 0.14 69 1010.6
20260906013004 81 122 7.0 10.4 0.00 0.14 0.14 69 1010.6
20260906012504 81 117 7.8 10.4 0.00 0.14 0.14 68 1010.5
20260906012003 81 121 7.0 10.4 0.00 0.14 0.14 67 1010.4
20260906011004 82 123 7.0 10.4 0.00 0.14 0.14 66 1010.4
20260906010505 83 121 7.0 10.4 0.00 0.14 0.14 65 1010.5
20260906010004 83 122 6.1 10.4 0.00 0.14 0.14 64 1010.5
20260906005505 83 121 7.0 10.4 0.00 0.14 0.14 64 1010.3
20260906005004 83 123 6.1 11.3 0.00 0.14 0.14 64 1010.3
20260906004504 84 122 6.1 13.0 0.00 0.14 0.14 63 1010.2
20260906004004 84 128 8.7 13.0 0.00 0.14 0.14 62 1010.1
20260906003004 85 126 7.8 13.9 0.00 0.14 0.14 61 1010.1
20260906002003 85 126 7.8 13.9 0.00 0.14 0.14 61 1009.9
20260906001504 85 131 8.7 13.0 0.00 0.14 0.14 61 1009.9
20260906001005 86 124 7.8 13.9 0.00 0.14 0.14 61 1009.9
20260906000504 86 126 7.8 17.4 0.00 0.14 0.14 61 1009.7
20260906000004 87 136 10.4 17.4 0.00 0.14 0.14 60 1009.6
20260905235504 87 131 8.7 17.4 0.00 0.14 0.14 60 1009.6
20260905235004 88 130 9.6 15.6 0.00 0.14 0.14 58 1009.6
20260905234505 88 129 11.3 15.6 0.00 0.14 0.14 57 1009.5
20260905234003 89 120 8.7 14.8 0.00 0.14 0.14 57 1009.5
20260905233504 89 122 8.7 17.4 0.00 0.14 0.14 56 1009.6
20260905233004 89 125 8.7 17.4 0.00 0.14 0.14 57 1009.6
20260905232503 89 122 8.7 13.9 0.00 0.14 0.14 57 1009.5
20260905232006 90 131 9.6 13.9 0.00 0.14 0.14 58 1009.6
20260905231504 90 121 8.7 13.9 0.00 0.14 0.14 57 1009.6
20260905231005 91 112 7.8 13.9 0.00 0.14 0.14 56 1009.5
20260905230504 91 126 8.7 13.9 0.00 0.14 0.14 57 1009.5
20260905230004 91 113 7.8 13.9 0.00 0.14 0.14 56 1009.5
20260905225506 92 130 10.4 13.9 0.00 0.14 0.14 55 1009.5
20260905225004 92 121 8.7 12.2 0.00 0.14 0.14 55 1009.5
20260905224504 93 111 8.7 13.9 0.00 0.14 0.14 53 1009.4
20260905224003 93 125 10.4 13.9 0.00 0.14 0.14 52 1009.4
20260905223504 93 121 7.0 12.2 0.00 0.14 0.14 52 1009.4
20260905222004 94 146 6.1 11.3 0.00 0.14 0.14 50 1009.3
20260905221504 94 139 7.8 12.2 0.00 0.14 0.14 51 1009.2
20260905221004 94 136 8.7 12.2 0.00 0.14 0.14 51 1009.1
20260905220504 94 167 6.1 10.4 0.00 0.14 0.14 53 1009.1
20260905215504 94 184 7.8 10.4 0.00 0.14 0.14 51 1009.1
20260905214504 94 200 9.6 13.9 0.00 0.14 0.14 51 1009.1
20260905214005 94 198 10.4 13.9 0.00 0.14 0.14 51 1009.0
20260905213504 94 200 8.7 14.8 0.00 0.14 0.14 50 1009.1
20260905213004 94 160 10.4 14.8 0.00 0.14 0.14 48 1009.0
20260905212503 94 186 8.7 14.8 0.00 0.14 0.14 50 1009.1
20260905212004 94 208 7.8 13.9 0.00 0.14 0.14 48 1009.1
20260905210504 94 192 10.4 17.4 0.00 0.14 0.14 46 1009.1
20260905210004 94 220 10.4 17.4 0.00 0.14 0.14 48 1009.1
20260905205504 94 214 11.3 17.4 0.00 0.14 0.14 46 1009.1
20260905205006 94 183 11.3 14.8 0.00 0.14 0.14 46 1009.1
20260905204504 94 221 9.6 13.0 0.00 0.14 0.14 48 1009.1
20260905204004 93 180 6.1 10.4 0.00 0.14 0.14 49 1009.0
20260905203504 93 172 5.2 10.4 0.00 0.14 0.14 48 1008.9
20260905203004 93 128 4.3 10.4 0.00 0.14 0.14 47 1008.8
20260905202004 92 138 4.3 11.3 0.00 0.14 0.14 49 1009.0
20260905200504 92 105 3.5 10.4 0.00 0.14 0.14 51 1008.9
20260905200005 92 101 7.0 10.4 0.00 0.14 0.14 52 1008.9
20260905195504 92 107 2.6 10.4 0.00 0.14 0.14 53 1009.0
20260905194503 91 153 3.5 10.4 0.00 0.14 0.14 55 1009.0
20260905194005 91 165 5.2 10.4 0.00 0.14 0.14 56 1009.0
20260905193503 91 179 6.1 11.3 0.00 0.14 0.14 54 1009.1